[[{"header":{"parameterUnit":"m.s-1","parameterCategory":1,"la1":30.2991,"la2":30.254,"lo1":-89.0895,"lo2":-89.0444,"dy":0.0017,"dx":0.0017,"nx":28,"ny":28,"refTime":"2024-03-18T21:00:00:Z","depth":0,"parameterNumber":2,"parameterNumberName":"U-component_of_WINDS"},"data":[0,0,0,0,0,0,0,0,0,0,0,0,0,0,0,0,0,0,0,0,0,0,0,0,0,0,0,0,0,0,0,0,0,0,0,0,0,0,0,0,0,0,0,0,0,0,0,0,0,0,0,0,0,0,0,0,0,0,3.6903,3.6904,0,3.7027,3.7029,3.703,3.7005,3.7003,3.7001,3.6999,3.7124,3.713,3.7135,0,0,0,0,0,0,0,0,0,0,0,0,0,3.6639,3.6644,3.6903,3.6904,3.6906,3.7027,3.7029,3.703,3.7006,3.7003,3.7,3.6998,3.7123,3.7129,3.7135,0,0,0,0,0,0,0,0,0,0,0,0,0,3.6758,3.6646,3.6902,3.6908,3.691,3.7027,3.7029,3.7031,3.7006,3.7003,3.7,3.6996,3.712,3.7128,3.7136,3.7255,0,0,3.7161,3.7165,0,0,0,0,0,0,0,0,3.6751,3.6767,3.6906,3.6908,3.691,3.6997,3.6982,3.7106,3.7007,3.697,3.6999,3.6995,3.7085,3.7096,3.7126,3.7261,3.7266,3.7162,3.7167,3.7171,3.7173,0,0,0,0,0,0,0,3.6743,3.6762,3.6952,3.6908,3.691,3.6903,3.6916,3.7005,3.7045,3.6973,3.6971,3.6986,3.7085,3.7119,3.7129,3.7268,3.7162,3.7169,3.7174,3.7177,3.7501,3.7505,0,0,0,0,0,0,3.6733,3.6755,3.6948,3.6956,3.6821,3.6911,3.6925,3.6973,3.7044,3.7051,3.6989,3.6985,3.7106,3.712,3.7133,3.7274,3.7171,3.7178,3.7183,3.7498,3.7502,3.7506,0,0,0,0,0,0,3.6728,3.6751,3.6943,3.6855,3.6879,3.6919,3.6972,3.6977,3.701,3.7056,3.7063,3.7016,3.7104,3.7122,3.7224,3.7278,3.7182,3.7189,3.7493,3.7499,3.7504,3.7557,0,0,0,0,0,0,3.672,3.6749,3.6795,3.6856,3.6884,3.7033,3.6976,3.6982,3.7025,3.702,3.7083,3.709,3.7103,3.7212,3.7232,3.7287,3.7196,3.7489,3.7496,3.7503,3.755,3.7563,3.7575,0,0,0,0,0,3.6711,3.6805,3.6798,3.6821,3.6943,3.7036,3.7051,3.7064,3.7029,3.7075,3.7104,3.7088,3.7269,3.7223,3.7245,3.7303,3.7485,3.7494,3.7502,3.7545,3.7561,3.7574,0,0,0,0,0,0,3.6749,3.6814,3.6806,3.6923,3.6974,3.7032,3.709,3.7082,3.7143,3.7136,3.7149,3.7164,3.7267,3.7296,3.7243,3.742,3.7372,3.7385,3.7397,3.7412,3.7424,3.7414,3.7202,0,0,0,0,0,3.6772,3.6843,3.6895,3.6993,3.7019,3.7051,3.7092,3.7097,3.715,3.7171,3.7208,3.7259,3.7327,3.7372,3.7437,3.7555,3.7566,3.7606,3.7618,3.7628,3.7638,3.7699,3.7716,3.7534,3.7534,3.7533,0,0,3.6818,3.6862,3.6906,3.7002,3.7042,3.7114,3.7069,3.7147,3.72,3.7183,3.7281,3.731,3.7368,3.7477,3.7527,3.7504,3.7691,3.7639,3.7646,3.7651,3.7709,3.7726,3.7742,3.7539,3.7538,3.7537,0,0,3.6939,3.6981,3.7066,3.7107,3.7168,3.7188,3.7208,3.7266,3.7284,3.7383,3.7371,3.7433,3.7551,3.7592,3.7628,3.7762,3.7748,3.7783,3.7845,3.7904,3.7919,3.7931,3.7976,3.7992,3.7794,3.7794,3.7794,0,3.6989,3.7097,3.711,3.7189,3.723,3.7219,3.7303,3.7342,3.7422,3.7449,3.7423,3.7569,3.7607,3.7724,3.7756,3.7788,3.7809,3.7775,3.7916,3.7929,3.7941,3.7983,3.8,3.7798,3.7797,3.7797,3.7796,0,3.7153,3.7229,3.729,3.7366,3.7414,3.7496,3.7519,3.7567,3.7568,3.7589,3.7688,3.7734,3.7807,3.7835,3.7838,3.7952,3.7935,3.7913,3.7864,3.7961,3.8001,3.8018,3.7803,3.7801,3.78,3.7799,0,0,3.7302,3.7383,3.7405,3.7438,3.7504,3.7561,3.7641,3.7713,3.7751,3.7806,3.7871,3.797,3.7949,3.799,3.7996,3.8049,3.8147,3.8019,3.802,3.8038,3.8271,3.8286,3.8305,3.8139,3.8143,3.8145,3.8265,0,3.7426,3.7567,3.758,3.7706,3.7774,3.7763,3.7832,3.7879,3.7901,3.796,3.7985,3.8053,3.8022,3.8046,3.8097,3.8124,3.8193,3.8116,3.8197,3.82,3.818,3.8326,3.8343,3.8454,3.8281,3.8284,3.8286,0,3.759,3.7649,3.7781,3.7834,3.7863,3.7925,3.799,3.8048,3.81,3.8112,3.8157,3.8156,3.8235,3.8186,3.8294,3.8241,3.8275,3.8293,3.8298,3.8304,3.8247,3.8333,3.849,3.8505,3.8311,3.8309,3.8308,0,3.768,3.7793,3.7886,3.7915,3.798,3.8023,3.8053,3.8101,3.8142,3.8199,3.8225,3.829,3.8325,3.8375,3.839,3.8353,3.8497,3.8449,3.8507,3.8506,3.8535,3.8533,3.8697,3.8563,3.8563,3.8562,3.8562,0,3.7816,3.7897,3.7927,3.7983,3.8072,3.8086,3.8173,3.82,3.8243,3.8303,3.8299,3.8355,3.8374,3.8433,3.8446,3.8531,3.8548,3.8558,3.856,3.8557,3.8555,3.8577,3.8569,3.8567,3.8566,3.8565,3.8564,0,3.7932,3.7956,3.8055,3.8109,3.8124,3.8187,3.8231,3.8285,3.8306,3.8382,3.8401,3.8433,3.8502,3.8523,3.8607,3.8615,3.8714,3.8711,3.8696,3.8696,3.875,3.8744,3.8932,3.8956,3.8809,3.8811,3.8812,0,3.8015,3.8077,3.8136,3.8176,3.8207,3.8272,3.8313,3.8328,3.8371,3.8433,3.8479,3.8547,3.8602,3.8713,3.8743,3.8805,3.8801,3.8863,3.8811,3.8804,3.8798,3.8793,3.8797,3.8872,3.8874,3.8875,3.8876,0,3.816,3.8168,3.8228,3.8291,3.8341,3.8392,3.844,3.8473,3.8495,3.8543,3.8614,3.8656,3.874,3.8807,3.887,3.8899,3.889,3.8893,3.8908,3.8904,3.8892,3.8896,3.872,3.8888,3.8886,3.8886,3.8885,3.8885,3.826,3.8312,3.8361,3.8428,3.8466,3.8511,3.8563,3.859,3.8649,3.8718,3.8724,3.8799,3.8846,3.893,3.8962,3.902,3.9001,3.9026,3.9031,3.9036,3.9038,3.8885,3.9032,3.9031,3.9031,3.9031,3.9031,0,3.8401,3.8432,3.8492,3.856,3.8611,3.86,3.8652,3.8696,3.8762,3.8807,3.8861,3.894,3.9004,3.9039,3.9102,3.9141,3.9138,3.9157,3.9152,3.9158,3.9053,3.9031,3.9158,3.9158,3.9158,3.9158,3.9158,3.9157,3.848,3.8567,3.8581,3.8686,3.8716,3.8789,3.882,3.886,3.8896,3.8985,3.9038,3.906,3.91,3.9166,3.9223,3.9232,3.9253,3.9273,3.9279,3.9179,3.9166,3.9154,3.9133,3.9279,3.9279,3.9379,3.938,3.9381]},{"header":{"parameterUnit":"m.s-1","parameterCategory":1,"la1":30.2991,"la2":30.254,"lo1":-89.0895,"lo2":-89.0444,"dy":0.0017,"dx":0.0017,"nx":28,"ny":28,"refTime":"2024-03-18T21:00:00:Z","depth":0,"parameterNumber":3,"parameterNumberName":"V-component_of_WINDS"},"data":[0,0,0,0,0,0,0,0,0,0,0,0,0,0,0,0,0,0,0,0,0,0,0,0,0,0,0,0,0,0,0,0,0,0,0,0,0,0,0,0,0,0,0,0,0,0,0,0,0,0,0,0,0,0,0,0,0,0,0.2912,0.2912,0,0.2899,0.2899,0.2899,0.287,0.2869,0.2869,0.2868,0.2856,0.2856,0.2856,0,0,0,0,0,0,0,0,0,0,0,0,0,0.2913,0.2913,0.2912,0.2912,0.2912,0.2899,0.2899,0.2899,0.287,0.2869,0.2869,0.2868,0.2856,0.2856,0.2856,0,0,0,0,0,0,0,0,0,0,0,0,0,0.2908,0.2913,0.2912,0.2896,0.2894,0.2899,0.2899,0.2899,0.287,0.2869,0.2868,0.2868,0.2856,0.2856,0.2856,0.2876,0,0,0.2857,0.2858,0,0,0,0,0,0,0,0,0.2908,0.2908,0.2899,0.2897,0.2895,0.2885,0.2895,0.2891,0.287,0.2879,0.2868,0.2867,0.2866,0.2866,0.2865,0.2876,0.2875,0.2857,0.2858,0.2858,0.2858,0,0,0,0,0,0,0,0.2908,0.2908,0.2907,0.2899,0.2897,0.289,0.2888,0.2894,0.2878,0.2879,0.2876,0.2875,0.2865,0.2865,0.2865,0.2875,0.2857,0.2858,0.2858,0.2858,0.2899,0.29,0,0,0,0,0,0,0.2911,0.2909,0.2907,0.2907,0.29,0.289,0.2888,0.2889,0.2878,0.2875,0.2876,0.2874,0.2865,0.2864,0.2864,0.2886,0.2858,0.2858,0.2858,0.2898,0.2899,0.29,0,0,0,0,0,0,0.2911,0.2911,0.2908,0.2907,0.2906,0.2891,0.2893,0.289,0.2889,0.2876,0.2873,0.2879,0.2864,0.2864,0.2873,0.2885,0.2858,0.2859,0.2897,0.2899,0.29,0.293,0,0,0,0,0,0,0.2911,0.2911,0.2919,0.2907,0.2906,0.2917,0.2893,0.289,0.289,0.2887,0.2878,0.2875,0.2864,0.2873,0.2873,0.2885,0.2859,0.2896,0.2898,0.29,0.2928,0.2933,0.2936,0,0,0,0,0,0.2911,0.2929,0.2919,0.2919,0.2915,0.2918,0.2917,0.2903,0.2891,0.2898,0.2889,0.2876,0.2884,0.2874,0.2874,0.2887,0.2895,0.2897,0.2899,0.2926,0.2932,0.2936,0,0,0,0,0,0,0.2943,0.2927,0.2917,0.293,0.2926,0.2913,0.2922,0.2909,0.2908,0.2906,0.2889,0.2887,0.2898,0.2893,0.2883,0.2904,0.2887,0.2889,0.2908,0.2913,0.2916,0.2918,0.2859,0,0,0,0,0,0.2951,0.2954,0.294,0.2954,0.2952,0.2937,0.2938,0.2927,0.2922,0.292,0.2912,0.2907,0.2909,0.291,0.2911,0.2927,0.2924,0.2935,0.2939,0.2943,0.2945,0.2953,0.2957,0.2907,0.2907,0.2907,0,0,0.2969,0.296,0.2964,0.296,0.2955,0.2959,0.2936,0.2941,0.2944,0.2921,0.2929,0.2923,0.2916,0.2929,0.2934,0.2925,0.2958,0.2945,0.2948,0.2949,0.2955,0.296,0.2964,0.2908,0.2908,0.2908,0,0,0.3003,0.2997,0.3007,0.3002,0.2995,0.2985,0.2987,0.2976,0.2971,0.2978,0.2961,0.2964,0.2967,0.2963,0.2961,0.2992,0.2979,0.2992,0.3014,0.3021,0.3025,0.3029,0.304,0.3044,0.2995,0.2995,0.2995,0,0.3026,0.3031,0.3014,0.302,0.3019,0.2997,0.3007,0.3003,0.2997,0.2996,0.2986,0.2988,0.2983,0.2994,0.3001,0.3,0.3003,0.2994,0.3026,0.3029,0.3032,0.3043,0.3047,0.2996,0.2996,0.2996,0.2996,0,0.306,0.3063,0.3072,0.3066,0.3065,0.3073,0.3058,0.3059,0.3048,0.3039,0.3046,0.3038,0.3037,0.3038,0.3028,0.3047,0.3042,0.3029,0.3012,0.3039,0.3048,0.3052,0.2999,0.2998,0.2998,0.2997,0,0,0.3115,0.3097,0.3101,0.3097,0.3086,0.3089,0.3096,0.3093,0.3095,0.309,0.3096,0.3098,0.3085,0.3083,0.3072,0.3079,0.3103,0.3065,0.3064,0.3072,0.3124,0.3134,0.3139,0.3094,0.3094,0.3095,0.3124,0,0.3147,0.3157,0.3142,0.3156,0.3159,0.3137,0.3143,0.3137,0.3128,0.3129,0.3119,0.3121,0.3105,0.3103,0.3109,0.3099,0.3113,0.3096,0.3099,0.3099,0.3102,0.3144,0.3155,0.3183,0.3128,0.3128,0.3129,0,0.3186,0.3183,0.3197,0.3184,0.3185,0.319,0.3186,0.3187,0.318,0.3173,0.317,0.3156,0.3161,0.3144,0.3151,0.314,0.3139,0.3134,0.3135,0.3136,0.3116,0.3145,0.3191,0.3196,0.3134,0.3134,0.3134,0,0.3225,0.3224,0.3232,0.323,0.3215,0.3219,0.3213,0.3205,0.3204,0.32,0.3199,0.3196,0.3195,0.3193,0.3179,0.3167,0.3187,0.3168,0.3182,0.3182,0.3188,0.3188,0.3235,0.3187,0.3187,0.3187,0.3187,0,0.3263,0.3273,0.3249,0.3254,0.3264,0.3246,0.3256,0.3248,0.324,0.3243,0.3224,0.3227,0.3207,0.3208,0.3197,0.3204,0.3204,0.3198,0.3195,0.32,0.3201,0.3201,0.3198,0.3188,0.3188,0.3187,0.3187,0,0.3309,0.3293,0.3301,0.3286,0.3282,0.329,0.3277,0.3281,0.327,0.3274,0.3274,0.3258,0.3258,0.3242,0.324,0.3232,0.3244,0.3237,0.3247,0.3245,0.3259,0.3258,0.3308,0.3314,0.3262,0.3262,0.3263,0,0.3334,0.3341,0.3326,0.3327,0.3321,0.3322,0.3321,0.3303,0.3302,0.3293,0.3298,0.3296,0.3294,0.3295,0.3282,0.328,0.3273,0.329,0.3273,0.3277,0.3273,0.3273,0.3274,0.3295,0.3295,0.3296,0.3296,0,0.3381,0.3373,0.3372,0.3367,0.3366,0.3362,0.3357,0.3358,0.3338,0.3338,0.3337,0.3335,0.3332,0.333,0.3325,0.3319,0.3304,0.3302,0.3305,0.3311,0.3316,0.3313,0.3258,0.3301,0.3301,0.33,0.33,0.33,0.3418,0.3422,0.3412,0.3411,0.3405,0.34,0.3403,0.3392,0.3391,0.3386,0.3375,0.3376,0.3367,0.3359,0.3353,0.3354,0.3345,0.3349,0.3351,0.3352,0.3355,0.3315,0.3353,0.3353,0.3352,0.3352,0.3352,0,0.3464,0.3456,0.3455,0.3448,0.3447,0.3432,0.3425,0.3425,0.3426,0.3419,0.3416,0.3415,0.3413,0.34,0.3396,0.3399,0.3392,0.3399,0.3399,0.3397,0.3363,0.3361,0.3404,0.3404,0.3404,0.3404,0.3404,0.3404,0.3488,0.3495,0.3485,0.3488,0.348,0.3481,0.3478,0.3473,0.3467,0.3466,0.3464,0.3455,0.3445,0.3441,0.3438,0.3434,0.3434,0.3443,0.3437,0.3405,0.34,0.3395,0.3393,0.3443,0.3443,0.3471,0.3471,0.3471]}]]